Time,TemperatureF,DewpointF,PressureIn,WindDirection,WindDirectionDegrees,WindSpeedMPH,WindSpeedGustMPH,Humidity,HourlyPrecipIn,Conditions,Clouds,dailyrainin,SoftwareType,DateUTC
2013-03-27 00:00:00,31.8,26.4,0.00,SW,225,0.0,0.0,80,0.00,,,0.00,WUHU216HW,2013-03-27 04:00:00,
2013-03-27 00:05:00,31.8,26.4,0.00,SSE,158,0.0,0.0,80,0.00,,,0.00,WUHU216HW,2013-03-27 04:05:00,
2013-03-27 00:10:00,31.8,26.4,0.00,SSE,158,0.0,2.6,80,0.00,,,0.00,WUHU216HW,2013-03-27 04:10:00,
2013-03-27 00:15:00,31.8,26.4,0.00,SE,135,0.0,2.6,80,0.00,,,0.00,WUHU216HW,2013-03-27 04:15:00,
2013-03-27 00:20:00,31.8,26.4,0.00,SE,135,0.0,1.5,80,0.00,,,0.00,WUHU216HW,2013-03-27 04:20:00,
2013-03-27 00:25:00,31.8,26.4,0.00,SSW,203,0.0,1.5,80,0.00,,,0.00,WUHU216HW,2013-03-27 04:25:00,
2013-03-27 00:30:00,31.8,26.4,0.00,SSW,203,0.0,0.0,80,0.00,,,0.00,WUHU216HW,2013-03-27 04:30:00,
2013-03-27 00:35:00,31.8,26.4,0.00,SW,225,0.0,0.0,80,0.00,,,0.00,WUHU216HW,2013-03-27 04:35:00,
2013-03-27 00:40:00,31.8,26.4,0.00,SSE,158,4.0,4.0,80,0.00,,,0.00,WUHU216HW,2013-03-27 04:40:00,
2013-03-27 00:45:00,31.6,26.2,0.00,East,90,0.0,4.0,80,0.00,,,0.00,WUHU216HW,2013-03-27 04:45:00,
2013-03-27 00:50:00,31.6,26.2,0.00,SE,135,0.0,3.3,80,0.00,,,0.00,WUHU216HW,2013-03-27 04:50:00,
2013-03-27 00:55:00,31.6,26.2,0.00,SSE,158,0.0,3.3,80,0.00,,,0.00,WUHU216HW,2013-03-27 04:55:00,
2013-03-27 01:00:00,31.6,26.2,0.00,WSW,248,0.0,0.0,80,0.00,,,0.00,WUHU216HW,2013-03-27 05:00:00,
2013-03-27 01:05:00,31.4,26.2,0.00,NW,315,0.0,0.0,80,0.00,,,0.00,WUHU216HW,2013-03-27 05:05:00,
2013-03-27 01:10:00,31.2,25.8,0.00,SSE,158,0.0,0.0,80,0.00,,,0.00,WUHU216HW,2013-03-27 05:10:00,
2013-03-27 01:15:00,31.2,25.8,0.00,SSE,158,0.0,0.0,80,0.00,,,0.00,WUHU216HW,2013-03-27 05:15:00,
2013-03-27 01:20:00,31.2,25.8,0.00,SSE,158,0.0,0.0,80,0.00,,,0.00,WUHU216HW,2013-03-27 05:20:00,
2013-03-27 01:25:00,31.2,26.1,0.00,SSE,158,0.0,0.0,81,0.00,,,0.00,WUHU216HW,2013-03-27 05:25:00,
2013-03-27 01:30:00,31.2,26.1,0.00,SE,135,0.0,1.3,81,0.00,,,0.00,WUHU216HW,2013-03-27 05:30:00,
2013-03-27 01:35:00,31.2,26.1,0.00,SSW,203,0.0,1.3,81,0.00,,,0.00,WUHU216HW,2013-03-27 05:35:00,
2013-03-27 01:40:00,31.2,26.1,0.00,SE,135,0.0,0.0,81,0.00,,,0.00,WUHU216HW,2013-03-27 05:40:00,
2013-03-27 01:45:00,31.4,26.3,0.00,SE,135,0.0,0.0,81,0.00,,,0.00,WUHU216HW,2013-03-27 05:45:00,
2013-03-27 01:50:00,31.2,26.1,0.00,SE,135,0.0,0.0,81,0.00,,,0.00,WUHU216HW,2013-03-27 05:50:00,
2013-03-27 01:55:00,31.4,26.3,0.00,SE,135,0.0,0.0,81,0.00,,,0.00,WUHU216HW,2013-03-27 05:55:00,
2013-03-27 02:00:00,31.2,26.1,0.00,SSE,158,0.0,0.0,81,0.00,,,0.00,WUHU216HW,2013-03-27 06:00:00,
2013-03-27 02:05:00,31.2,26.1,0.00,SSE,158,0.0,0.0,81,0.00,,,0.00,WUHU216HW,2013-03-27 06:05:00,
2013-03-27 02:10:00,31.4,26.3,0.00,SSE,158,0.0,0.0,81,0.00,,,0.00,WUHU216HW,2013-03-27 06:10:00,
2013-03-27 02:15:00,31.4,26.1,0.00,South,180,0.0,0.0,81,0.00,,,0.00,WUHU216HW,2013-03-27 06:15:00,
2013-03-27 02:20:00,31.2,26.1,0.00,SSW,203,0.0,2.6,81,0.00,,,0.00,WUHU216HW,2013-03-27 06:20:00,
2013-03-27 02:26:00,31.2,26.1,0.00,NW,315,0.0,2.6,81,0.00,,,0.00,WUHU216HW,2013-03-27 06:26:00,
2013-03-27 02:30:00,31.2,26.1,0.00,NW,315,0.0,1.7,81,0.00,,,0.00,WUHU216HW,2013-03-27 06:30:00,
2013-03-27 02:35:00,31.2,26.1,0.00,SW,225,0.0,0.0,81,0.00,,,0.00,WUHU216HW,2013-03-27 06:35:00,
2013-03-27 02:40:00,31.2,26.1,0.00,SSE,158,0.0,0.0,81,0.00,,,0.00,WUHU216HW,2013-03-27 06:40:00,
2013-03-27 02:46:00,31.2,26.1,0.00,South,180,0.0,0.0,81,0.00,,,0.00,WUHU216HW,2013-03-27 06:46:00,
2013-03-27 02:51:00,31.2,26.1,0.00,SE,135,0.0,0.0,81,0.00,,,0.00,WUHU216HW,2013-03-27 06:51:00,
2013-03-27 02:56:00,31.2,26.1,0.00,SSE,158,0.0,0.0,81,0.00,,,0.00,WUHU216HW,2013-03-27 06:56:00,
2013-03-27 03:01:00,31.1,25.9,0.00,ENE,68,0.0,0.0,81,0.00,,,0.00,WUHU216HW,2013-03-27 07:01:00,
2013-03-27 03:06:00,31.1,25.8,0.00,SSE,158,0.0,0.0,81,0.00,,,0.00,WUHU216HW,2013-03-27 07:06:00,
2013-03-27 03:11:00,30.9,25.8,0.00,SE,135,0.0,0.0,81,0.00,,,0.00,WUHU216HW,2013-03-27 07:11:00,
2013-03-27 03:16:00,30.9,25.9,0.00,SE,135,0.0,0.0,81,0.00,,,0.00,WUHU216HW,2013-03-27 07:16:00,
2013-03-27 03:21:00,31.1,25.9,0.00,SE,135,0.0,0.0,81,0.00,,,0.00,WUHU216HW,2013-03-27 07:21:00,
2013-03-27 03:26:00,31.1,25.9,0.00,SE,135,0.0,0.0,81,0.00,,,0.00,WUHU216HW,2013-03-27 07:26:00,
2013-03-27 03:31:00,31.1,25.9,0.00,ESE,113,0.0,0.0,81,0.00,,,0.00,WUHU216HW,2013-03-27 07:31:00,
2013-03-27 03:36:00,31.1,25.9,0.00,North,0,0.0,0.0,81,0.00,,,0.00,WUHU216HW,2013-03-27 07:36:00,
2013-03-27 03:41:00,31.1,25.9,0.00,West,270,0.0,0.0,81,0.00,,,0.00,WUHU216HW,2013-03-27 07:41:00,
2013-03-27 03:46:00,30.9,25.8,0.00,SSE,158,0.0,1.7,81,0.00,,,0.00,WUHU216HW,2013-03-27 07:46:00,
2013-03-27 03:51:00,30.9,25.8,0.00,SSE,158,0.0,1.7,81,0.00,,,0.00,WUHU216HW,2013-03-27 07:51:00,
2013-03-27 03:56:00,30.9,25.8,0.00,West,270,1.1,1.1,81,0.00,,,0.00,WUHU216HW,2013-03-27 07:56:00,
2013-03-27 04:01:00,30.9,25.8,0.00,NNW,338,0.0,1.1,81,0.00,,,0.00,WUHU216HW,2013-03-27 08:01:00,
2013-03-27 04:06:00,30.9,25.8,0.00,NNW,338,0.0,0.0,81,0.00,,,0.00,WUHU216HW,2013-03-27 08:06:00,
2013-03-27 04:11:00,30.9,25.8,0.00,South,180,0.0,0.0,81,0.00,,,0.00,WUHU216HW,2013-03-27 08:11:00,
2013-03-27 04:16:00,30.9,25.8,0.00,NNE,23,0.0,0.0,81,0.00,,,0.00,WUHU216HW,2013-03-27 08:16:00,
2013-03-27 04:21:00,30.9,25.5,0.00,SE,135,0.0,0.0,80,0.00,,,0.00,WUHU216HW,2013-03-27 08:21:00,
2013-03-27 04:26:00,30.7,25.3,0.00,SE,135,0.0,0.0,80,0.00,,,0.00,WUHU216HW,2013-03-27 08:26:00,
2013-03-27 04:31:00,30.7,25.3,0.00,ENE,68,0.0,0.0,80,0.00,,,0.00,WUHU216HW,2013-03-27 08:31:00,
2013-03-27 04:36:00,30.7,25.3,0.00,South,180,0.0,0.0,80,0.00,,,0.00,WUHU216HW,2013-03-27 08:36:00,
2013-03-27 04:41:00,30.7,25.3,0.00,SE,135,0.0,0.0,80,0.00,,,0.00,WUHU216HW,2013-03-27 08:41:00,
2013-03-27 04:46:00,30.7,25.3,0.00,South,180,0.0,1.3,80,0.00,,,0.00,WUHU216HW,2013-03-27 08:46:00,
2013-03-27 04:51:00,30.7,25.3,0.00,SSE,158,0.0,1.3,80,0.00,,,0.00,WUHU216HW,2013-03-27 08:51:00,
2013-03-27 04:56:00,30.7,25.3,0.00,SSE,158,0.0,0.0,80,0.00,,,0.00,WUHU216HW,2013-03-27 08:56:00,
2013-03-27 05:01:00,30.7,25.3,0.00,SSE,158,0.0,0.0,80,0.00,,,0.00,WUHU216HW,2013-03-27 09:01:00,
2013-03-27 05:06:00,30.7,25.3,0.00,SSE,158,0.0,0.0,80,0.00,,,0.00,WUHU216HW,2013-03-27 09:06:00,
2013-03-27 05:11:00,30.9,25.1,0.00,South,180,0.0,0.0,79,0.00,,,0.00,WUHU216HW,2013-03-27 09:11:00,
2013-03-27 05:17:00,30.9,25.1,0.00,SSE,158,0.0,0.0,79,0.00,,,0.00,WUHU216HW,2013-03-27 09:17:00,
2013-03-27 05:22:00,30.9,25.1,0.00,SSE,158,0.0,0.0,79,0.00,,,0.00,WUHU216HW,2013-03-27 09:22:00,
2013-03-27 05:27:00,30.7,25.0,0.00,SSE,158,0.0,0.0,79,0.00,,,0.00,WUHU216HW,2013-03-27 09:27:00,
2013-03-27 05:32:00,30.7,25.0,0.00,SSE,158,0.0,0.0,79,0.00,,,0.00,WUHU216HW,2013-03-27 09:32:00,
2013-03-27 05:37:00,30.7,25.0,0.00,SSE,158,0.0,0.0,79,0.00,,,0.00,WUHU216HW,2013-03-27 09:37:00,
2013-03-27 05:42:00,30.7,25.0,0.00,NW,315,0.0,0.0,79,0.00,,,0.00,WUHU216HW,2013-03-27 09:42:00,
2013-03-27 05:47:00,30.7,25.0,0.00,SSW,203,0.0,0.0,79,0.00,,,0.00,WUHU216HW,2013-03-27 09:47:00,
2013-03-27 05:52:00,30.7,25.0,0.00,South,180,0.0,0.0,79,0.00,,,0.00,WUHU216HW,2013-03-27 09:52:00,
2013-03-27 05:57:00,30.7,25.0,0.00,West,270,0.0,0.0,79,0.00,,,0.00,WUHU216HW,2013-03-27 09:57:00,
2013-03-27 06:02:00,30.7,25.0,0.00,West,270,0.0,0.0,79,0.00,,,0.00,WUHU216HW,2013-03-27 10:02:00,
2013-03-27 06:07:00,30.7,25.0,0.00,NNW,338,0.0,0.0,79,0.00,,,0.00,WUHU216HW,2013-03-27 10:07:00,
2013-03-27 06:12:00,30.7,25.0,0.00,South,180,0.0,1.1,79,0.00,,,0.00,WUHU216HW,2013-03-27 10:12:00,
2013-03-27 06:17:00,30.7,25.0,0.00,SE,135,0.0,1.1,79,0.00,,,0.00,WUHU216HW,2013-03-27 10:17:00,
2013-03-27 06:22:00,30.7,25.0,0.00,SSE,158,0.0,0.0,79,0.00,,,0.00,WUHU216HW,2013-03-27 10:22:00,
2013-03-27 06:27:00,30.7,25.0,0.00,SSE,158,0.0,0.0,79,0.00,,,0.00,WUHU216HW,2013-03-27 10:27:00,
2013-03-27 06:32:00,30.7,25.0,0.00,South,180,0.0,0.0,79,0.00,,,0.00,WUHU216HW,2013-03-27 10:32:00,
2013-03-27 06:37:00,30.7,25.0,0.00,ENE,68,0.0,1.5,79,0.00,,,0.00,WUHU216HW,2013-03-27 10:37:00,
2013-03-27 06:42:00,30.7,25.0,0.00,ENE,68,0.0,1.5,79,0.00,,,0.00,WUHU216HW,2013-03-27 10:42:00,
2013-03-27 06:47:00,30.7,25.0,0.00,North,0,0.0,0.0,79,0.00,,,0.00,WUHU216HW,2013-03-27 10:47:00,
2013-03-27 06:52:00,30.7,25.0,0.00,NE,45,0.0,0.0,79,0.00,,,0.00,WUHU216HW,2013-03-27 10:52:00,
2013-03-27 06:57:00,30.7,25.0,0.00,NE,45,0.0,0.0,79,0.00,,,0.00,WUHU216HW,2013-03-27 10:57:00,
2013-03-27 07:02:00,30.7,25.0,0.00,ENE,68,0.0,0.0,79,0.00,,,0.00,WUHU216HW,2013-03-27 11:02:00,
2013-03-27 07:07:00,30.7,25.0,0.00,SSE,158,0.0,0.0,79,0.00,,,0.00,WUHU216HW,2013-03-27 11:07:00,
2013-03-27 07:12:00,30.7,25.0,0.00,SSE,158,0.0,0.0,79,0.00,,,0.00,WUHU216HW,2013-03-27 11:12:00,
2013-03-27 07:17:00,30.7,25.0,0.00,SW,225,0.0,0.0,79,0.00,,,0.00,WUHU216HW,2013-03-27 11:17:00,
2013-03-27 07:22:00,30.7,25.0,0.00,SE,135,0.0,0.0,79,0.00,,,0.00,WUHU216HW,2013-03-27 11:22:00,
2013-03-27 07:27:00,30.5,25.0,0.00,South,180,0.0,0.0,79,0.00,,,0.00,WUHU216HW,2013-03-27 11:27:00,
2013-03-27 07:32:00,30.5,24.8,0.00,WNW,293,0.0,0.0,79,0.00,,,0.00,WUHU216HW,2013-03-27 11:32:00,
2013-03-27 07:37:00,30.5,24.8,0.00,SE,135,0.0,0.0,79,0.00,,,0.00,WUHU216HW,2013-03-27 11:37:00,
2013-03-27 07:42:00,30.5,25.1,0.00,NNW,338,0.0,0.0,80,0.00,,,0.00,WUHU216HW,2013-03-27 11:42:00,
2013-03-27 07:47:00,30.3,24.9,0.00,NNW,338,0.0,0.0,80,0.00,,,0.00,WUHU216HW,2013-03-27 11:47:00,
2013-03-27 07:52:00,30.5,25.1,0.00,NNW,338,0.0,0.0,80,0.00,,,0.00,WUHU216HW,2013-03-27 11:52:00,
2013-03-27 07:57:00,30.5,25.1,0.00,SSW,203,0.0,3.8,80,0.00,,,0.00,WUHU216HW,2013-03-27 11:57:00,
2013-03-27 08:02:00,30.5,25.1,0.00,NNW,338,0.0,3.8,80,0.00,,,0.00,WUHU216HW,2013-03-27 12:02:00,
2013-03-27 08:07:00,30.7,25.3,0.00,SE,135,0.0,0.0,80,0.00,,,0.00,WUHU216HW,2013-03-27 12:07:00,
2013-03-27 08:12:00,30.7,25.3,0.00,SE,135,0.0,0.0,80,0.00,,,0.00,WUHU216HW,2013-03-27 12:12:00,
2013-03-27 08:17:00,30.7,25.3,0.00,ESE,113,0.0,1.5,80,0.00,,,0.00,WUHU216HW,2013-03-27 12:17:00,
2013-03-27 08:22:00,30.7,25.3,0.00,South,180,0.4,1.5,80,0.00,,,0.00,WUHU216HW,2013-03-27 12:22:00,
2013-03-27 08:27:00,30.9,25.5,0.00,SE,135,0.0,0.4,80,0.00,,,0.00,WUHU216HW,2013-03-27 12:27:00,
2013-03-27 08:32:00,30.9,25.1,0.00,SW,225,0.0,6.2,79,0.00,,,0.00,WUHU216HW,2013-03-27 12:32:00,
2013-03-27 08:37:00,30.9,25.1,0.00,NNE,23,0.0,6.2,79,0.00,,,0.00,WUHU216HW,2013-03-27 12:37:00,
2013-03-27 08:42:00,31.1,25.0,0.00,SE,135,0.0,1.7,78,0.00,,,0.00,WUHU216HW,2013-03-27 12:42:00,
2013-03-27 08:47:00,31.1,25.0,0.00,South,180,0.0,1.3,78,0.00,,,0.00,WUHU216HW,2013-03-27 12:47:00,
2013-03-27 08:52:00,31.2,25.2,0.00,SSW,203,0.0,0.0,78,0.00,,,0.00,WUHU216HW,2013-03-27 12:52:00,
2013-03-27 08:57:00,31.4,25.4,0.00,NNW,338,0.0,3.3,78,0.00,,,0.00,WUHU216HW,2013-03-27 12:57:00,
2013-03-27 09:02:00,31.6,25.5,0.00,SSW,203,0.0,3.3,78,0.00,,,0.00,WUHU216HW,2013-03-27 13:02:00,
2013-03-27 09:07:00,32.0,25.4,0.00,SSW,203,0.0,2.9,77,0.00,,,0.00,WUHU216HW,2013-03-27 13:07:00,
2013-03-27 09:13:00,32.1,25.7,0.00,SSW,203,0.0,0.0,77,0.00,,,0.00,WUHU216HW,2013-03-27 13:13:00,
2013-03-27 09:17:00,32.5,26.1,0.00,SSW,203,0.0,0.0,77,0.00,,,0.00,WUHU216HW,2013-03-27 13:17:00,
2013-03-27 09:23:00,32.5,25.7,0.00,ESE,113,0.0,3.1,76,0.00,,,0.00,WUHU216HW,2013-03-27 13:23:00,
2013-03-27 09:28:00,32.7,25.9,0.00,SSE,158,0.0,3.1,76,0.00,,,0.00,WUHU216HW,2013-03-27 13:28:00,
2013-03-27 09:33:00,32.7,25.9,0.00,SSE,158,0.0,3.1,76,0.00,,,0.00,WUHU216HW,2013-03-27 13:33:00,
2013-03-27 09:38:00,32.9,26.1,0.00,NW,315,0.0,0.0,76,0.00,,,0.00,WUHU216HW,2013-03-27 13:38:00,
2013-03-27 09:43:00,32.9,26.1,0.00,SSW,203,0.0,0.0,76,0.00,,,0.00,WUHU216HW,2013-03-27 13:43:00,
2013-03-27 09:48:00,32.7,25.6,0.00,SSE,158,1.1,1.1,75,0.00,,,0.00,WUHU216HW,2013-03-27 13:48:00,
2013-03-27 09:53:00,32.7,25.6,0.00,SSE,158,1.1,1.1,75,0.00,,,0.00,WUHU216HW,2013-03-27 13:53:00,
2013-03-27 09:58:00,32.7,25.6,0.00,SSE,158,0.0,2.6,75,0.00,,,0.00,WUHU216HW,2013-03-27 13:58:00,
2013-03-27 10:03:00,32.7,25.6,0.00,SSE,158,0.0,2.6,75,0.00,,,0.00,WUHU216HW,2013-03-27 14:03:00,
2013-03-27 10:07:00,32.9,25.7,0.00,SSE,158,0.0,3.1,75,0.00,,,0.00,WUHU216HW,2013-03-27 14:07:00,
2013-03-27 10:13:00,33.0,25.9,0.00,WSW,248,0.0,3.1,75,0.00,,,0.00,WUHU216HW,2013-03-27 14:13:00,
2013-03-27 10:17:00,33.0,25.6,0.00,SE,135,0.0,2.9,74,0.00,,,0.00,WUHU216HW,2013-03-27 14:17:00,
2013-03-27 10:23:00,33.0,25.6,0.00,SW,225,0.0,6.2,74,0.00,,,0.00,WUHU216HW,2013-03-27 14:23:00,
2013-03-27 10:27:00,32.9,25.4,0.00,SSE,158,0.0,6.2,74,0.00,,,0.00,WUHU216HW,2013-03-27 14:27:00,
2013-03-27 10:32:00,33.0,25.6,0.00,SSE,158,0.0,0.8,74,0.00,,,0.00,WUHU216HW,2013-03-27 14:32:00,
2013-03-27 10:37:00,33.2,26.1,0.00,SSE,158,0.0,3.1,75,0.00,,,0.00,WUHU216HW,2013-03-27 14:37:00,
2013-03-27 10:43:00,33.4,26.2,0.00,South,180,0.0,3.1,75,0.00,,,0.00,WUHU216HW,2013-03-27 14:43:00,
2013-03-27 10:47:00,33.6,26.4,0.00,SSE,158,4.9,4.9,75,0.00,,,0.00,WUHU216HW,2013-03-27 14:47:00,
2013-03-27 10:52:00,33.9,26.6,0.00,SE,135,0.0,4.9,75,0.00,,,0.00,WUHU216HW,2013-03-27 14:52:00,
2013-03-27 10:57:00,33.8,26.6,0.00,SE,135,0.0,1.3,75,0.00,,,0.00,WUHU216HW,2013-03-27 14:57:00,
2013-03-27 11:03:00,33.6,26.4,0.00,SE,135,0.0,0.0,75,0.00,,,0.00,WUHU216HW,2013-03-27 15:03:00,
2013-03-27 11:08:00,33.6,26.4,0.00,NW,315,0.0,0.0,75,0.00,,,0.00,WUHU216HW,2013-03-27 15:08:00,
2013-03-27 11:13:00,33.6,26.4,0.00,NW,315,0.0,0.0,75,0.00,,,0.00,WUHU216HW,2013-03-27 15:13:00,
2013-03-27 11:18:00,33.8,26.6,0.00,ENE,68,0.0,4.4,75,0.00,,,0.00,WUHU216HW,2013-03-27 15:18:00,
2013-03-27 11:23:00,34.1,27.2,0.00,SE,135,1.1,4.4,76,0.00,,,0.00,WUHU216HW,2013-03-27 15:23:00,
2013-03-27 11:28:00,34.3,27.4,0.00,SSE,158,1.5,4.2,76,0.00,,,0.00,WUHU216HW,2013-03-27 15:28:00,
2013-03-27 11:33:00,34.1,26.9,0.00,SSE,158,0.0,2.9,75,0.00,,,0.00,WUHU216HW,2013-03-27 15:33:00,
2013-03-27 11:38:00,33.8,26.9,0.00,SSE,158,4.2,4.2,76,0.00,,,0.00,WUHU216HW,2013-03-27 15:38:00,
2013-03-27 11:43:00,33.6,26.7,0.00,WSW,248,0.0,4.2,76,0.00,,,0.00,WUHU216HW,2013-03-27 15:43:00,
2013-03-27 11:48:00,33.6,26.7,0.00,South,180,0.0,1.3,76,0.00,,,0.00,WUHU216HW,2013-03-27 15:48:00,
2013-03-27 11:53:00,34.3,27.7,0.00,SSE,158,2.9,2.9,77,0.00,,,0.00,WUHU216HW,2013-03-27 15:53:00,
2013-03-27 11:58:00,34.7,28.1,0.00,SSE,158,1.1,3.3,77,0.00,,,0.00,WUHU216HW,2013-03-27 15:58:00,
2013-03-27 12:03:00,35.2,28.6,0.00,SSE,158,0.4,5.8,77,0.00,,,0.00,WUHU216HW,2013-03-27 16:03:00,
2013-03-27 12:08:00,35.4,28.5,0.00,South,180,1.7,5.8,76,0.00,,,0.00,WUHU216HW,2013-03-27 16:08:00,
2013-03-27 12:13:00,36.3,29.3,0.00,SSE,158,0.0,2.4,76,0.00,,,0.00,WUHU216HW,2013-03-27 16:13:00,
2013-03-27 12:18:00,37.0,29.3,0.00,SSE,158,0.0,4.2,74,0.00,,,0.00,WUHU216HW,2013-03-27 16:18:00,
2013-03-27 12:23:00,37.7,29.8,0.00,WSW,248,0.0,4.2,73,0.00,,,0.00,WUHU216HW,2013-03-27 16:23:00,
2013-03-27 12:28:00,38.3,29.7,0.00,NNE,23,0.0,3.5,71,0.00,,,0.00,WUHU216HW,2013-03-27 16:28:00,
2013-03-27 12:32:00,38.8,29.8,0.00,WNW,293,0.0,5.8,70,0.00,,,0.00,WUHU216HW,2013-03-27 16:32:00,
2013-03-27 12:37:00,38.8,29.4,0.00,SSE,158,1.7,5.8,69,0.00,,,0.00,WUHU216HW,2013-03-27 16:37:00,
2013-03-27 12:42:00,38.4,29.1,0.00,ENE,68,0.0,4.0,69,0.00,,,0.00,WUHU216HW,2013-03-27 16:42:00,
2013-03-27 12:47:00,38.4,29.1,0.00,South,180,1.5,3.3,69,0.00,,,0.00,WUHU216HW,2013-03-27 16:47:00,
2013-03-27 12:52:00,38.8,29.4,0.00,SSE,158,0.0,3.5,69,0.00,,,0.00,WUHU216HW,2013-03-27 16:52:00,
2013-03-27 12:57:00,39.0,29.2,0.00,West,270,0.0,3.8,68,0.00,,,0.00,WUHU216HW,2013-03-27 16:57:00,
2013-03-27 13:03:00,39.3,29.6,0.00,SSE,158,2.9,4.6,68,0.00,,,0.00,WUHU216HW,2013-03-27 17:03:00,
2013-03-27 13:08:00,39.3,29.2,0.00,South,180,0.0,4.6,67,0.00,,,0.00,WUHU216HW,2013-03-27 17:08:00,
2013-03-27 13:13:00,39.0,28.9,0.00,West,270,0.0,2.4,67,0.00,,,0.00,WUHU216HW,2013-03-27 17:13:00,
2013-03-27 13:18:00,38.8,28.3,0.00,West,270,0.0,2.4,66,0.00,,,0.00,WUHU216HW,2013-03-27 17:18:00,
2013-03-27 13:23:00,39.0,28.5,0.00,West,270,0.0,2.6,66,0.00,,,0.00,WUHU216HW,2013-03-27 17:23:00,
2013-03-27 13:28:00,39.7,29.2,0.00,ESE,113,0.0,4.4,66,0.00,,,0.00,WUHU216HW,2013-03-27 17:28:00,
2013-03-27 13:33:00,40.4,29.9,0.00,WSW,248,0.0,5.1,66,0.00,,,0.00,WUHU216HW,2013-03-27 17:33:00,
2013-03-27 13:38:00,41.0,30.1,0.00,NW,315,0.0,5.1,65,0.00,,,0.00,WUHU216HW,2013-03-27 17:38:00,
2013-03-27 13:43:00,41.0,29.7,0.00,SSE,158,6.4,6.4,64,0.00,,,0.00,WUHU216HW,2013-03-27 17:43:00,
2013-03-27 13:48:00,40.8,29.5,0.00,South,180,1.7,6.4,64,0.00,,,0.00,WUHU216HW,2013-03-27 17:48:00,
2013-03-27 13:53:00,41.0,29.7,0.00,SE,135,2.6,4.9,64,0.00,,,0.00,WUHU216HW,2013-03-27 17:53:00,
2013-03-27 13:58:00,41.3,30.0,0.00,SSE,158,2.9,7.6,64,0.00,,,0.00,WUHU216HW,2013-03-27 17:58:00,
2013-03-27 14:03:00,41.7,30.3,0.00,SSE,158,5.5,7.6,64,0.00,,,0.00,WUHU216HW,2013-03-27 18:03:00,
2013-03-27 14:08:00,42.0,30.7,0.00,NW,315,2.0,6.2,64,0.00,,,0.00,WUHU216HW,2013-03-27 18:08:00,
2013-03-27 14:13:00,42.0,29.9,0.00,SSW,203,0.0,4.0,62,0.00,,,0.00,WUHU216HW,2013-03-27 18:13:00,
2013-03-27 14:18:00,42.0,29.9,0.00,SSE,158,7.1,7.1,62,0.00,,,0.00,WUHU216HW,2013-03-27 18:18:00,
2013-03-27 14:23:00,42.4,30.2,0.00,SSE,158,0.0,7.1,62,0.00,,,0.00,WUHU216HW,2013-03-27 18:23:00,
2013-03-27 14:28:00,42.6,30.8,0.00,SSE,158,6.2,6.2,63,0.00,,,0.00,WUHU216HW,2013-03-27 18:28:00,
2013-03-27 14:33:00,42.6,30.8,0.00,SSE,158,4.4,6.2,63,0.00,,,0.00,WUHU216HW,2013-03-27 18:33:00,
2013-03-27 14:38:00,42.6,30.8,0.00,SSE,158,0.0,6.2,63,0.00,,,0.00,WUHU216HW,2013-03-27 18:38:00,
2013-03-27 14:43:00,42.6,30.8,0.00,SE,135,0.0,5.5,63,0.00,,,0.00,WUHU216HW,2013-03-27 18:43:00,
2013-03-27 14:48:00,42.6,30.8,0.00,SSE,158,3.5,5.1,63,0.00,,,0.00,WUHU216HW,2013-03-27 18:48:00,
2013-03-27 14:53:00,42.6,30.8,0.00,SSE,158,4.4,4.6,63,0.00,,,0.00,WUHU216HW,2013-03-27 18:53:00,
2013-03-27 14:58:00,42.4,30.2,0.00,SSE,158,2.0,5.8,62,0.00,,,0.00,WUHU216HW,2013-03-27 18:58:00,
2013-03-27 15:03:00,42.2,30.1,0.00,SSE,158,5.1,7.3,62,0.00,,,0.00,WUHU216HW,2013-03-27 19:03:00,
2013-03-27 15:08:00,42.0,29.9,0.00,SSE,158,0.0,7.3,62,0.00,,,0.00,WUHU216HW,2013-03-27 19:08:00,
2013-03-27 15:13:00,42.0,29.9,0.00,South,180,2.9,6.9,62,0.00,,,0.00,WUHU216HW,2013-03-27 19:13:00,
2013-03-27 15:18:00,41.7,29.6,0.00,SSE,158,4.2,6.9,62,0.00,,,0.00,WUHU216HW,2013-03-27 19:18:00,
2013-03-27 15:23:00,42.0,29.9,0.00,SW,225,0.0,6.4,62,0.00,,,0.00,WUHU216HW,2013-03-27 19:23:00,
2013-03-27 15:28:00,42.0,29.9,0.00,SSE,158,2.9,6.4,62,0.00,,,0.00,WUHU216HW,2013-03-27 19:28:00,
2013-03-27 15:33:00,42.0,29.9,0.00,SE,135,2.9,4.6,62,0.00,,,0.00,WUHU216HW,2013-03-27 19:33:00,
2013-03-27 15:38:00,42.0,29.5,0.00,SE,135,0.0,4.6,61,0.00,,,0.00,WUHU216HW,2013-03-27 19:38:00,
2013-03-27 15:43:00,42.0,29.9,0.00,SW,225,1.3,4.6,62,0.00,,,0.00,WUHU216HW,2013-03-27 19:43:00,
2013-03-27 15:48:00,41.9,29.4,0.00,SE,135,2.4,4.6,61,0.00,,,0.00,WUHU216HW,2013-03-27 19:48:00,
2013-03-27 15:53:00,42.0,29.5,0.00,SSE,158,4.0,6.0,61,0.00,,,0.00,WUHU216HW,2013-03-27 19:53:00,
2013-03-27 15:58:00,41.7,29.6,0.00,SSE,158,3.8,6.7,62,0.00,,,0.00,WUHU216HW,2013-03-27 19:58:00,
2013-03-27 16:03:00,41.7,29.6,0.00,SSE,158,3.5,8.0,62,0.00,,,0.00,WUHU216HW,2013-03-27 20:03:00,
2013-03-27 16:08:00,41.7,29.2,0.00,SSE,158,4.6,8.0,61,0.00,,,0.00,WUHU216HW,2013-03-27 20:08:00,
2013-03-27 16:13:00,41.9,29.8,0.00,SSE,158,4.6,6.4,62,0.00,,,0.00,WUHU216HW,2013-03-27 20:13:00,
2013-03-27 16:18:00,41.9,29.4,0.00,SSE,158,1.7,5.5,61,0.00,,,0.00,WUHU216HW,2013-03-27 20:18:00,
2013-03-27 16:23:00,41.7,29.2,0.00,SSE,158,3.1,5.5,61,0.00,,,0.00,WUHU216HW,2013-03-27 20:23:00,
2013-03-27 16:28:00,41.9,29.4,0.00,SSE,158,4.6,5.3,61,0.00,,,0.00,WUHU216HW,2013-03-27 20:28:00,
2013-03-27 16:33:00,41.7,29.2,0.00,South,180,3.1,5.3,61,0.00,,,0.00,WUHU216HW,2013-03-27 20:33:00,
2013-03-27 16:38:00,41.7,29.2,0.00,SSE,158,6.0,6.0,61,0.00,,,0.00,WUHU216HW,2013-03-27 20:38:00,
2013-03-27 16:43:00,41.7,29.6,0.00,SSE,158,5.3,6.0,61,0.00,,,0.00,WUHU216HW,2013-03-27 20:43:00,
2013-03-27 16:48:00,41.7,29.2,0.00,SSE,158,3.3,5.3,61,0.00,,,0.00,WUHU216HW,2013-03-27 20:48:00,
2013-03-27 16:53:00,41.7,29.2,0.00,SSE,158,2.6,3.3,61,0.00,,,0.00,WUHU216HW,2013-03-27 20:53:00,
2013-03-27 16:58:00,41.7,29.2,0.00,SSE,158,2.9,5.5,61,0.00,,,0.00,WUHU216HW,2013-03-27 20:58:00,
2013-03-27 17:03:00,41.5,29.0,0.00,SE,135,1.5,5.5,61,0.00,,,0.00,WUHU216HW,2013-03-27 21:03:00,
2013-03-27 17:08:00,41.5,29.0,0.00,SE,135,4.4,4.9,61,0.00,,,0.00,WUHU216HW,2013-03-27 21:08:00,
2013-03-27 17:13:00,41.5,29.0,0.00,SSE,158,2.0,6.2,61,0.00,,,0.00,WUHU216HW,2013-03-27 21:13:00,
2013-03-27 17:18:00,41.5,29.0,0.00,SSE,158,2.6,6.2,61,0.00,,,0.00,WUHU216HW,2013-03-27 21:18:00,
2013-03-27 17:23:00,41.3,28.5,0.00,East,90,0.0,4.4,60,0.00,,,0.00,WUHU216HW,2013-03-27 21:23:00,
2013-03-27 17:28:00,41.3,28.5,0.00,SSE,158,5.3,5.3,60,0.00,,,0.00,WUHU216HW,2013-03-27 21:28:00,
2013-03-27 17:33:00,41.3,28.5,0.00,SE,135,1.5,5.3,60,0.00,,,0.00,WUHU216HW,2013-03-27 21:33:00,
2013-03-27 17:38:00,41.1,28.3,0.00,SSE,158,4.2,5.8,60,0.00,,,0.00,WUHU216HW,2013-03-27 21:38:00,
2013-03-27 17:43:00,41.1,28.3,0.00,SSE,158,0.8,5.8,60,0.00,,,0.00,WUHU216HW,2013-03-27 21:43:00,
2013-03-27 17:48:00,41.1,28.3,0.00,SSE,158,1.5,5.5,60,0.00,,,0.00,WUHU216HW,2013-03-27 21:48:00,
2013-03-27 17:53:00,41.1,28.3,0.00,NE,45,0.0,5.5,60,0.00,,,0.00,WUHU216HW,2013-03-27 21:53:00,
2013-03-27 17:58:00,41.0,28.2,0.00,SE,135,7.6,7.6,60,0.00,,,0.00,WUHU216HW,2013-03-27 21:58:00,
2013-03-27 18:03:00,40.8,28.0,0.00,SSE,158,0.0,7.6,60,0.00,,,0.00,WUHU216HW,2013-03-27 22:03:00,
2013-03-27 18:08:00,40.8,28.0,0.00,SSE,158,3.1,5.5,60,0.00,,,0.00,WUHU216HW,2013-03-27 22:08:00,
2013-03-27 18:13:00,40.6,27.8,0.00,ESE,113,0.6,7.1,60,0.00,,,0.00,WUHU216HW,2013-03-27 22:13:00,
2013-03-27 18:18:00,40.4,27.6,0.00,SSE,158,3.1,7.1,60,0.00,,,0.00,WUHU216HW,2013-03-27 22:18:00,
2013-03-27 18:23:00,40.4,27.6,0.00,SSE,158,0.0,4.0,60,0.00,,,0.00,WUHU216HW,2013-03-27 22:23:00,
2013-03-27 18:28:00,40.2,27.5,0.00,North,0,0.0,4.0,60,0.00,,,0.00,WUHU216HW,2013-03-27 22:28:00,
2013-03-27 18:33:00,40.1,27.3,0.00,SSW,203,2.6,3.5,60,0.00,,,0.00,WUHU216HW,2013-03-27 22:33:00,
2013-03-27 18:38:00,39.9,27.1,0.00,SE,135,0.0,7.1,60,0.00,,,0.00,WUHU216HW,2013-03-27 22:38:00,
2013-03-27 18:43:00,39.7,26.9,0.00,SSE,158,3.3,7.1,60,0.00,,,0.00,WUHU216HW,2013-03-27 22:43:00,
2013-03-27 18:48:00,39.5,26.6,0.00,SSE,158,4.4,4.4,60,0.00,,,0.00,WUHU216HW,2013-03-27 22:48:00,
2013-03-27 18:53:00,39.3,26.6,0.00,South,180,2.4,4.4,60,0.00,,,0.00,WUHU216HW,2013-03-27 22:53:00,
2013-03-27 18:58:00,39.0,26.2,0.00,SE,135,0.0,3.3,60,0.00,,,0.00,WUHU216HW,2013-03-27 22:58:00,
2013-03-27 19:03:00,39.0,26.2,0.00,SE,135,0.0,3.3,60,0.00,,,0.00,WUHU216HW,2013-03-27 23:03:00,
2013-03-27 19:08:00,38.8,26.4,0.00,SE,135,1.7,4.0,61,0.00,,,0.00,WUHU216HW,2013-03-27 23:08:00,
2013-03-27 19:13:00,38.4,26.1,0.00,SE,135,0.0,4.0,61,0.00,,,0.00,WUHU216HW,2013-03-27 23:13:00,
2013-03-27 19:18:00,38.4,26.1,0.00,SE,135,2.4,2.4,61,0.00,,,0.00,WUHU216HW,2013-03-27 23:18:00,
2013-03-27 19:23:00,38.3,25.9,0.00,SE,135,0.0,2.4,61,0.00,,,0.00,WUHU216HW,2013-03-27 23:23:00,
2013-03-27 19:28:00,38.1,25.8,0.00,SE,135,0.0,4.0,61,0.00,,,0.00,WUHU216HW,2013-03-27 23:28:00,
2013-03-27 19:33:00,37.9,25.6,0.00,SE,135,1.7,4.0,61,0.00,,,0.00,WUHU216HW,2013-03-27 23:33:00,
2013-03-27 19:38:00,37.5,25.7,0.00,SE,135,0.6,2.9,62,0.00,,,0.00,WUHU216HW,2013-03-27 23:38:00,
2013-03-27 19:43:00,37.2,25.3,0.00,SSE,158,2.9,3.3,62,0.00,,,0.00,WUHU216HW,2013-03-27 23:43:00,
2013-03-27 19:48:00,37.2,25.3,0.00,SSE,158,0.0,3.3,62,0.00,,,0.00,WUHU216HW,2013-03-27 23:48:00,
2013-03-27 19:53:00,37.0,25.2,0.00,SSE,158,0.0,2.0,62,0.00,,,0.00,WUHU216HW,2013-03-27 23:53:00,
2013-03-27 19:58:00,36.6,24.8,0.00,SSE,158,0.8,2.9,62,0.00,,,0.00,WUHU216HW,2013-03-27 23:58:00,
2013-03-27 20:03:00,36.3,24.5,0.00,SSE,158,2.4,3.1,62,0.00,,,0.00,WUHU216HW,2013-03-28 00:03:00,
2013-03-27 20:08:00,36.1,24.7,0.00,SSE,158,0.0,3.1,63,0.00,,,0.00,WUHU216HW,2013-03-28 00:08:00,
2013-03-27 20:13:00,35.9,24.7,0.00,SSE,158,0.0,2.6,63,0.00,,,0.00,WUHU216HW,2013-03-28 00:13:00,
2013-03-27 20:18:00,35.7,24.4,0.00,SSE,158,0.0,0.0,63,0.00,,,0.00,WUHU216HW,2013-03-28 00:18:00,
2013-03-27 20:23:00,35.7,24.4,0.00,SSE,158,0.0,0.0,63,0.00,,,0.00,WUHU216HW,2013-03-28 00:23:00,
2013-03-27 20:28:00,35.4,24.0,0.00,SSE,158,0.0,0.0,63,0.00,,,0.00,WUHU216HW,2013-03-28 00:28:00,
2013-03-27 20:33:00,35.4,24.4,0.00,SSE,158,0.0,0.0,64,0.00,,,0.00,WUHU216HW,2013-03-28 00:33:00,
2013-03-27 20:38:00,35.2,24.2,0.00,SSE,158,0.0,0.0,64,0.00,,,0.00,WUHU216HW,2013-03-28 00:38:00,
2013-03-27 20:43:00,35.2,24.2,0.00,SSE,158,0.0,0.0,64,0.00,,,0.00,WUHU216HW,2013-03-28 00:43:00,
2013-03-27 20:48:00,34.8,23.9,0.00,SSE,158,0.0,0.0,64,0.00,,,0.00,WUHU216HW,2013-03-28 00:48:00,
2013-03-27 20:53:00,34.8,23.9,0.00,SSE,158,0.0,0.0,64,0.00,,,0.00,WUHU216HW,2013-03-28 00:53:00,
2013-03-27 20:58:00,34.7,23.7,0.00,SSE,158,0.0,0.0,64,0.00,,,0.00,WUHU216HW,2013-03-28 00:58:00,
2013-03-27 21:03:00,34.5,23.5,0.00,SSE,158,0.0,0.0,64,0.00,,,0.00,WUHU216HW,2013-03-28 01:03:00,
2013-03-27 21:08:00,34.3,23.3,0.00,SSE,158,0.0,0.0,64,0.00,,,0.00,WUHU216HW,2013-03-28 01:08:00,
2013-03-27 21:13:00,34.3,23.3,0.00,SSE,158,0.0,0.0,64,0.00,,,0.00,WUHU216HW,2013-03-28 01:13:00,
2013-03-27 21:18:00,34.3,23.3,0.00,SSE,158,0.0,0.0,64,0.00,,,0.00,WUHU216HW,2013-03-28 01:18:00,
2013-03-27 21:23:00,34.1,23.1,0.00,SSE,158,0.0,0.0,64,0.00,,,0.00,WUHU216HW,2013-03-28 01:23:00,
2013-03-27 21:28:00,33.8,23.1,0.00,SSE,158,0.0,0.0,65,0.00,,,0.00,WUHU216HW,2013-03-28 01:28:00,
2013-03-27 21:33:00,33.6,23.0,0.00,SSE,158,0.0,0.0,65,0.00,,,0.00,WUHU216HW,2013-03-28 01:33:00,
2013-03-27 21:38:00,33.2,22.6,0.00,SSE,158,0.0,0.0,65,0.00,,,0.00,WUHU216HW,2013-03-28 01:38:00,
2013-03-27 21:43:00,33.0,22.5,0.00,SSE,158,0.0,0.0,65,0.00,,,0.00,WUHU216HW,2013-03-28 01:43:00,
2013-03-27 21:48:00,32.7,22.2,0.00,SSE,158,0.0,0.0,65,0.00,,,0.00,WUHU216HW,2013-03-28 01:48:00,
2013-03-27 21:53:00,32.7,22.2,0.00,SSE,158,0.0,0.0,65,0.00,,,0.00,WUHU216HW,2013-03-28 01:53:00,
2013-03-27 21:58:00,32.5,22.0,0.00,SSE,158,0.0,0.0,65,0.00,,,0.00,WUHU216HW,2013-03-28 01:58:00,
2013-03-27 22:03:00,32.5,22.0,0.00,SSE,158,0.0,0.0,65,0.00,,,0.00,WUHU216HW,2013-03-28 02:03:00,
2013-03-27 22:08:00,32.5,22.4,0.00,SSE,158,0.0,0.0,66,0.00,,,0.00,WUHU216HW,2013-03-28 02:08:00,
2013-03-27 22:13:00,32.5,22.4,0.00,SSE,158,0.0,0.0,66,0.00,,,0.00,WUHU216HW,2013-03-28 02:13:00,
2013-03-27 22:18:00,32.5,22.4,0.00,SSE,158,0.0,0.0,66,0.00,,,0.00,WUHU216HW,2013-03-28 02:18:00,
2013-03-27 22:23:00,32.3,22.2,0.00,SSE,158,0.0,0.0,66,0.00,,,0.00,WUHU216HW,2013-03-28 02:23:00,
2013-03-27 22:28:00,32.5,22.4,0.00,SSE,158,0.0,0.0,66,0.00,,,0.00,WUHU216HW,2013-03-28 02:28:00,
2013-03-27 22:33:00,32.3,22.6,0.00,SSE,158,0.0,0.0,67,0.00,,,0.00,WUHU216HW,2013-03-28 02:33:00,
2013-03-27 22:38:00,32.3,22.6,0.00,SSE,158,0.0,0.0,67,0.00,,,0.00,WUHU216HW,2013-03-28 02:38:00,
2013-03-27 22:43:00,32.3,22.6,0.00,SSE,158,0.0,0.0,67,0.00,,,0.00,WUHU216HW,2013-03-28 02:43:00,
2013-03-27 22:48:00,32.3,22.6,0.00,SSE,158,0.0,0.0,67,0.00,,,0.00,WUHU216HW,2013-03-28 02:48:00,
2013-03-27 22:53:00,32.3,22.6,0.00,SSE,158,0.0,0.0,67,0.00,,,0.00,WUHU216HW,2013-03-28 02:53:00,
2013-03-27 22:58:00,32.3,22.6,0.00,SSE,158,0.0,0.0,67,0.00,,,0.00,WUHU216HW,2013-03-28 02:58:00,
2013-03-27 23:03:00,32.1,22.4,0.00,SSE,158,0.0,0.0,67,0.00,,,0.00,WUHU216HW,2013-03-28 03:03:00,
2013-03-27 23:08:00,32.1,22.4,0.00,SSE,158,0.0,0.0,67,0.00,,,0.00,WUHU216HW,2013-03-28 03:08:00,
2013-03-27 23:13:00,32.1,22.4,0.00,SSE,158,0.0,0.0,67,0.00,,,0.00,WUHU216HW,2013-03-28 03:13:00,
2013-03-27 23:18:00,32.1,22.4,0.00,SSE,158,0.0,0.0,67,0.00,,,0.00,WUHU216HW,2013-03-28 03:18:00,
2013-03-27 23:23:00,32.1,22.4,0.00,SSE,158,0.0,0.0,67,0.00,,,0.00,WUHU216HW,2013-03-28 03:23:00,
2013-03-27 23:28:00,32.0,22.6,0.00,SSE,158,0.0,0.0,68,0.00,,,0.00,WUHU216HW,2013-03-28 03:28:00,
2013-03-27 23:33:00,31.8,22.4,0.00,SSE,158,0.0,0.0,68,0.00,,,0.00,WUHU216HW,2013-03-28 03:33:00,
2013-03-27 23:38:00,31.8,22.4,0.00,SSE,158,0.0,2.2,68,0.00,,,0.00,WUHU216HW,2013-03-28 03:38:00,
2013-03-27 23:43:00,31.8,22.4,0.00,SSE,158,0.0,2.2,68,0.00,,,0.00,WUHU216HW,2013-03-28 03:43:00,
2013-03-27 23:48:00,31.6,22.2,0.00,SSE,158,0.0,0.0,68,0.00,,,0.00,WUHU216HW,2013-03-28 03:48:00,
2013-03-27 23:53:00,31.6,22.2,0.00,SSE,158,0.0,0.0,68,0.00,,,0.00,WUHU216HW,2013-03-28 03:53:00,
2013-03-27 23:58:00,31.2,22.1,0.00,SSE,158,0.0,0.0,68,0.00,,,0.00,WUHU216HW,2013-03-28 03:58:00,